Location: Goudie Road
(49.9333°N, 119.0750°W)
Time: 02:16:00
(UTC-08:00)

Daily predictions for brighter satellites

Satellite Brightness Start Highest point End
(mag) Time Altitude Azimuth Time Altitude Azimuth Time Altitude Azimuth
ATLAS 3B R/B 4.4 03:28:32 24° NNE 03:28:32 24° NNE 03:31:45 10° NE
CENTAUR R/B 3.9 03:31:16 35° NE 03:31:16 35° NE 03:35:20 10° NE
CZ-4C R/B 3.7 03:34:42 45° ESE 03:34:42 45° ESE 03:40:05 10° SE
Cosmos 1844 Rocket 3.9 04:00:17 38° E 04:00:17 38° E 04:04:36 10° NE
Cosmos 2082 Rocket 3.7 04:23:03 25° N 04:25:04 32° NE 04:30:03 10° ESE
ATLAS CENTAUR R/B 3.4 04:30:33 26° ESE 04:30:33 26° ESE 04:32:32 10° SE
Cosmos 371 Rocket 4.1 04:38:49 45° SE 04:38:49 45° SE 04:42:16 10° SSE
Cosmos 1709 Rocket 4.0 04:34:34 10° S 04:40:53 80° E 04:47:18 10° NNE
Cosmos 1140 Rocket 3.4 04:51:36 82° ENE 04:51:36 82° ENE 04:56:39 10° NNE
IDEFIX/ARIANE 42P 3.7 04:46:41 10° NNE 04:51:44 44° E 04:56:45 10° S
Cosmos 1833 Rocket 3.5 04:50:49 27° N 04:53:38 48° NE 04:59:05 10° SE
Cosmos 676 Rocket 4.1 04:56:48 60° N 04:56:48 60° N 05:01:10 10° NNE
Cosmos 1408 Rocket 4.2 04:54:43 38° NNE 04:56:04 53° ENE 05:00:21 10° SSE
COSMOS 2455 3.2 04:57:12 46° NNW 04:57:12 46° NNW 05:02:24 10° NNE
Cosmos 2208 Rocket 4.1 04:57:27 47° NNW 04:59:04 79° ENE 05:04:32 10° SSE
USA 234 3.3 04:53:56 10° ENE 05:00:23 64° NNW 05:01:45 53° WNW
CZ-4B R/B 3.3 04:57:15 10° N 05:01:40 56° NNW 05:01:40 56° NNW
Cosmos 2263 Rocket 3.8 05:06:04 21° NNW 05:06:04 21° NNW 05:08:44 10° NNE
Cosmos 1954 Rocket 3.8 05:05:16 73° NW 05:05:16 73° NW 05:10:25 10° NNE
SKYMED 2 4.0 05:01:42 10° SSE 05:05:01 52° S 05:05:01 52° S
SL-27 R/B 3.4 05:06:54 50° E 05:06:54 50° E 05:10:06 10° SE
EO 1 Del DPAF 3.6 05:02:59 10° SSE 05:06:26 61° ESE 05:06:26 61° ESE
Cosmos 1850 Rocket 4.5 05:02:29 10° S 05:07:39 61° ESE 05:12:54 10° NNE
Cosmos 1023 Rocket 4.3 05:10:36 69° WNW 05:10:39 69° WNW 05:15:47 10° NNE
NOAA 6 4.2 05:08:29 10° NNE 05:13:42 74° ESE 05:18:53 10° S
Cosmos 468 Rocket 4.1 05:11:43 29° NNW 05:14:25 72° ENE 05:19:37 10° SSE
ATLAS 3B R/B 4.1 05:15:46 20° NNW 05:18:24 25° N 05:23:51 10° ENE
CENTAUR R/B 3.5 05:18:27 31° NW 05:19:55 34° NNW 05:26:39 10° NE
CZ-4C R/B 3.3 05:19:57 38° WSW 05:20:44 39° WSW 05:27:55 10° S
Cosmos 1743 Rocket 4.3 05:19:09 10° N 05:23:23 51° ENE 05:27:37 10° SSE
MSX 4.5 05:20:50 10° NNE 05:26:31 56° E 05:32:09 10° S
Cosmos 1174 3.6 05:26:54 74° WNW 05:27:12 81° WSW 05:30:48 10° SSE
CZ-2C R/B 2.7 05:23:37 10° NNE 05:28:11 62° ESE 05:32:50 10° S
Cosmos 2074 Rocket 4.1 05:22:20 10° S 05:28:33 79° E 05:34:47 10° NNE
SL-08 ROCKET BODY 4.2 05:23:11 10° SSW 05:28:59 67° WNW 05:34:56 10° N
Cosmos 1763 Rocket 3.8 05:27:38 16° NNW 05:31:42 63° ENE 05:36:46 10° SE
Cosmos 2278 Rocket 2.3 05:26:07 10° SSW 05:31:46 76° ESE 05:37:27 10° NNE
Cosmos 304 Rocket 3.8 05:30:07 25° NNW 05:32:58 83° ENE 05:37:46 10° SSE
Cosmos 1570 Rocket 4.1 05:32:57 42° WNW 05:34:11 51° WSW 05:39:13 10° S
Tiangong 2 3.4 05:33:43 16° S 05:34:26 17° SSE 05:36:37 10° ESE
BREEZE-M DEB (TANK) 2.7 05:33:28 37° W 05:35:38 86° S 05:38:31 10° E
Cosmos 2181 Rocket 4.3 05:31:15 10° NNW 05:37:06 41° W 05:42:50 10° SSW
Feng Yun 1-1 Rocket 4.0 05:34:45 10° NNE 05:40:12 76° WNW 05:45:34 10° SSW
Cosmos 1766 Rocket 3.7 05:41:44 43° WNW 05:42:25 47° W 05:46:38 10° SSW
Cosmos 1844 Rocket 3.1 05:42:00 35° W 05:43:19 40° NW 05:48:35 10° NNE
Cosmos 614 Rocket 4.3 05:44:05 36° W 05:45:07 40° WNW 05:49:56 10° NNE
Gblst 52 Del rocket 4.5 05:43:21 30° WNW 05:46:57 82° N 05:53:02 10° E
FAST Rocket 4.4 05:48:46 10° S 05:51:40 83° W 05:56:04 10° N
COSMO-SKYMED 1 3.5 05:50:29 10° SSW 05:53:37 28° WSW 05:53:37 28° WSW
COSMOS 2487 4.1 05:52:04 10° N 05:55:21 34° ENE 05:58:37 10° SE
BREEZE-M DEB (TANK) 3.6 05:54:12 33° W 05:55:43 65° SSW 06:05:21 10° ESE
Cosmos 1626 2.8 05:58:10 33° WSW 05:58:10 33° WSW 06:01:11 10° SSW
BREEZE-M DEB (TANK) 2.1 05:58:01 35° SW 05:58:56 66° SSE 06:04:00 10° E
BREEZE-M DEB (TANK) 3.6 05:57:45 32° W 05:59:22 65° SSW 06:08:25 10° ESE
Cosmos 1908 3.8 05:55:56 10° S 05:59:48 62° E 06:03:42 10° NNE
Cosmos 1726 3.9 05:56:29 10° SSE 05:59:52 34° E 06:03:15 10° NNE
Okean-O 2.8 05:56:21 10° N 06:00:39 48° WNW 06:04:54 10° SW
Cosmos 1741 Rocket 4.0 05:55:53 10° SW 06:01:02 56° WNW 06:06:13 10° NNE
SJ-12 3.8 06:00:10 10° NNE 06:04:18 84° WNW 06:08:26 10° SSW
Cosmos 1844 4.2 06:01:13 21° WSW 06:04:25 38° NW 06:09:43 10° NNE
ATLAS CENTAUR R/B 2.7 06:06:50 22° WSW 06:07:07 22° WSW 06:10:25 10° SSW
Meteor 1-16 Rocket 4.4 06:03:11 10° SW 06:08:31 46° WNW 06:13:45 10° N
Cosmos 1842 Rocket 3.6 06:04:25 10° S 06:08:54 88° E 06:13:25 10° N
Cosmos 2082 Rocket 2.3 06:04:56 15° NW 06:09:29 57° WSW 06:14:57 10° S
Cosmos 1703 3.6 06:06:44 17° NNW 06:09:29 41° W 06:13:12 10° SSW
Cosmos 2327 Rocket 4.4 06:05:30 10° SSW 06:11:36 62° WNW 06:17:40 10° N
NOSS 3-1 (C) 4.4 06:07:10 10° SSW 06:12:42 50° ESE 06:19:00 10° NE
Meteor 2-15 4.4 06:09:04 10° NNW 06:15:10 83° W 06:21:13 10° S
Cosmos 2058 3.3 06:15:55 10° NNW 06:19:55 42° W 06:23:54 10° SSW
Cosmos 2154 Rocket 3.9 06:14:25 10° SSW 06:20:38 80° W 06:26:56 10° N
SAR-Lupe-3 4.5 06:21:52 10° S 06:25:26 72° WSW 06:29:02 10° NNW
SMAP 3.3 06:20:56 10° NNE 06:25:37 74° ESE 06:30:17 10° S
Cosmos 540 Rocket 3.7 06:20:50 10° NNW 06:25:59 73° ENE 06:31:05 10° SSE
Cosmos-2242 3.9 06:22:59 10° SW 06:26:41 27° WNW 06:30:24 10° N
Abrixas rocket 4.5 06:26:02 11° WSW 06:27:08 12° SW 06:28:35 10° S
Cosmos 1484 Rocket 2.6 06:25:20 10° N 06:29:03 73° WNW 06:32:48 10° SSW
USA 81 4.0 06:25:27 10° N 06:30:44 74° W 06:35:59 10° S
IDEFIX/ARIANE 42P 3.2 06:26:33 10° N 06:31:13 33° WNW 06:35:51 10° SW
Shenzhou-11 Module 4.1 06:30:35 10° WSW 06:32:50 19° S 06:35:06 10° SE
SJ-7 4.4 06:31:08 10° N 06:35:24 70° WNW 06:39:37 10° SSW
Cosmos 2151 3.7 06:32:57 10° NNW 06:36:48 32° W 06:40:37 10° SSW
Cosmos 1833 Rocket 3.4 06:32:31 11° NW 06:37:25 34° WSW 06:42:27 10° S
CZ-4 R/B 1.7 06:34:05 10° NNE 06:38:14 74° ESE 06:42:16 10° S
Meteor 2-1 Rocket 4.2 06:32:58 10° SSW 06:38:26 62° WNW 06:44:02 10° N
Cosmos 2297 3.7 06:33:20 10° SSW 06:39:04 81° WNW 06:44:50 10° NNE
SL-27 R/B 4.3 06:40:34 14° W 06:41:17 14° W 06:43:17 10° SW
Meteor 2-15 Rocket 4.4 06:35:52 10° NNW 06:41:52 64° W 06:47:51 10° S
USA 234 3.7 06:36:42 10° ENE 06:42:56 48° N 06:49:06 10° WNW
COSMOS 2455 4.3 06:40:22 12° WNW 06:43:59 19° NNW 06:48:15 10° NNE
Cosmos 1500 Rocket 4.3 06:42:46 10° NNW 06:46:41 31° W 06:50:33 10° SSW
SL-8 Rocket 4.2 06:40:39 10° S 06:46:48 77° E 06:52:58 10° NNE
Cosmos 1633 Rocket 3.9 06:42:52 10° N 06:47:12 54° ENE 06:51:30 10° SSE
Timation 2 Rocket 3.9 06:42:04 10° NNW 06:48:22 79° WSW 06:54:24 10° SSE
Thor Agena Rocket 4.1 06:44:03 10° SSW 06:48:56 39° W 06:53:54 10° NNW
Cosmos 2218 Rocket 4.4 06:46:51 10° S 06:53:08 73° E 06:59:23 10° NNE
Cosmos 482 Debris 2.5 06:54:40 13° WNW 06:56:15 87° SSW 06:58:38 10° ESE
Cosmos 2227 Rocket 4.4 06:54:26 10° N 06:56:28 12° NNE 06:58:29 10° NE
Meteor 2-14 Rocket 4.4 06:50:58 10° SSW 06:57:07 73° WNW 07:03:17 10° N
SeaSat 1 4.1 06:55:43 10° NE 07:00:23 40° ESE 07:04:59 10° S
Iridium 96 4.5 06:59:25 10° S 07:01:46 52° E 07:04:11 10° NNE
Cosmos 1300 2.6 06:58:33 10° SSW 07:02:22 80° W 07:06:14 10° N
Cosmos 841 Rocket 4.2 06:58:44 10° NW 07:03:21 33° WSW 07:07:55 10° SSW
Iridium 19 4.1 07:01:21 10° S 07:03:42 90° SSW 07:06:26 10° N
AQUARIUS 4.4 06:59:43 10° N 07:04:05 50° WNW 07:08:25 10° SW
Cosmos 2221 2.7 07:00:48 10° SSW 07:04:57 51° WNW 07:09:11 10° N
CORIOLIS 4.2 07:00:32 10° N 07:05:54 69° WNW 07:11:16 10° SSW
CZ-2C R/B 3.5 07:02:45 10° NNW 07:06:03 20° WNW 07:09:24 10° WSW
Meteor 2-3 Rocket 4.5 07:01:29 10° N 07:07:12 59° ENE 07:12:56 10° SSE
USA 229 DEB 3.9 07:03:32 10° WSW 07:10:13 56° NW 07:17:08 10° NE
USA 229 3.9 07:03:38 10° WSW 07:10:19 56° NW 07:17:14 10° NE
Sich 1 3.0 07:06:29 10° NNW 07:10:46 70° W 07:15:03 10° S
ATLAS 3B R/B 3.5 07:04:28 10° NW 07:10:54 42° NNE 07:17:05 10° ESE
ALOS 2.6 07:07:09 10° NNE 07:11:52 75° ESE 07:16:32 10° S
NOSS 3-1 (A) 3.6 07:06:25 10° SW 07:12:15 82° SE 07:18:59 10° NE
CENTAUR R/B 4.0 07:06:37 10° NW 07:12:47 30° N 07:19:34 10° ENE
